Theta_e
314 323 326 326 327 327 328 329 328 328 331 330 328 329 329 327 326 326 326 324 323 320
311 314 314 317 320 323 326 326 328 327 325 324 325 325 324 324 324 323 322 322 321 317
304 306 309 314 315 317 319 319 320 322 324 324 324 323 320 316 315 316 313 312 313 310
300 301 303 304 306 308 311 312 313 314 317 318 317 317 314 311 309 309 307 306 307 305
298 299 300 301 302 302 303 305 305 308 308 309 309 308 306 306 305 305 303 302 301 301
296 296 296 297 297 297 298 299 299 300 302 302 301 300 301 301 301 301 300 300 299 298
292 294 294 294 293 293 294 294 294 295 296 296 297 297 296 296 296 296 297 297 296 295
291 292 291 290 290 290 290 291 291 291 291 292 293 293 292 292 293 292 292 291 292 291
289 289 288 288 288 288 288 288 288 287 287 288 289 292 293 291 290 289 288 287 287 286
286 286 286 286 285 285 286 287 286 286 286 286 287 291 291 290 288 287 287 286 284 283
284 284 284 284 284 284 285 285 285 285 285 285 286 290 290 289 286 284 284 283 283 282
282 282 282 283 282 283 283 283 283 284 284 284 284 289 290 289 284 283 282 282 282 282
281 281 281 281 282 282 282 283 283 283 283 283 283 287 289 289 283 281 281 281 281 282
280 280 280 281 281 281 281 281 280 281 281 281 281 282 288 289 283 282 280 280 279 280
Wind_Speed
6 4 4 6 4 4 4 5 7 8 9 9 9 8 9 7 8 10 9 10 8 6
6 5 4 6 5 4 4 3 4 5 6 5 4 5 5 7 10 9 9 7 7 4
6 6 5 5 6 5 5 3 2 2 5 6 8 8 7 5 5 7 4 4 5 4
5 5 5 4 5 5 5 5 5 4 5 6 6 6 6 5 4 5 4 3 5 6
5 5 4 4 5 6 6 5 5 6 4 4 2 1 3 4 4 6 6 6 6 6
6 6 6 6 6 6 6 5 5 4 3 3 3 4 5 6 6 6 7 8 8 7
6 5 4 4 5 5 5 5 6 5 5 4 4 5 5 5 6 6 6 6 7 7
6 5 5 5 5 5 4 4 4 4 5 5 4 3 4 5 5 5 5 4 4 5
7 6 6 6 6 5 5 5 4 5 5 6 4 7 8 7 5 6 6 6 5 4
7 8 7 7 6 6 6 5 6 6 6 7 6 11 11 12 5 6 7 7 6 5
9 8 7 6 6 6 5 6 6 6 6 7 6 11 12 12 6 6 7 7 7 7
9 10 9 9 7 6 6 6 6 5 6 7 7 10 12 10 5 6 6 6 7 8
8 9 10 9 9 5 5 7 5 8 6 7 9 10 13 12 4 7 5 5 6 11
8 8 7 8 6 6 7 7 5 8 7 7 7 8 14 18 8 7 5 6 5 6
Wind_Direction
306 272 241 240 248 239 209 202 195 210 211 211 212 197 204 210 224 223 223 214 213 215
359 17 9 353 354 350 343 332 214 191 189 204 217 220 203 208 214 220 223 215 207 175
3 360 350 328 320 315 316 334 302 214 210 201 210 210 213 216 224 198 195 185 178 183
9 352 346 344 331 331 326 316 294 267 246 230 218 197 187 201 193 211 190 171 184 188
349 344 343 340 349 357 339 340 345 326 323 319 311 199 198 209 204 198 189 187 185 192
354 357 350 348 347 345 337 328 325 330 306 277 239 209 210 206 203 204 199 191 189 187
342 332 328 333 334 332 326 320 317 311 304 288 265 250 241 227 216 208 202 192 189 187
327 325 319 316 311 307 306 299 304 314 310 304 288 267 251 248 240 223 221 215 205 197
337 331 313 300 293 288 286 283 276 271 259 260 251 261 241 234 233 219 201 200 199 169
345 337 324 313 308 297 286 272 258 254 248 252 248 234 227 230 227 218 211 204 189 183
343 333 323 316 303 295 287 279 271 262 259 262 254 241 228 231 225 223 217 204 194 192
333 326 325 322 313 298 291 285 277 266 263 255 262 252 230 219 220 236 230 204 188 184
317 316 314 309 308 297 284 279 274 275 252 250 259 235 227 220 212 237 220 197 199 190
309 305 296 300 301 300 299 287 279 281 276 259 255 255 247 229 206 216 219 212 206 199